EST,Max TemperatureF,Mean TemperatureF,Min TemperatureF,Max Dew PointF,MeanDew PointF,Min DewpointF,Max Humidity, Mean Humidity, Min Humidity, Max Sea Level PressureIn, Mean Sea Level PressureIn, Min Sea Level PressureIn, Max VisibilityMiles, Mean VisibilityMiles, Min VisibilityMiles, Max Wind SpeedMPH, Mean Wind SpeedMPH, Max Gust SpeedMPH,PrecipitationIn, CloudCover, Events, WindDirDegrees
2012-11-1,48,45,42,38,37,36,82,74,66,29.65,29.58,29.55,10,10,10,18,9,23,T,8,Rain,261
2012-11-2,46,43,39,37,33,28,76,65,53,29.86,29.73,29.65,10,10,10,22,10,30,T,8,,273
2012-11-3,47,43,39,30,28,27,70,60,49,30.06,29.96,29.86,10,10,10,21,10,26,T,8,,295
2012-11-4,40,38,36,31,27,23,82,71,59,30.08,30.06,30.04,10,10,10,14,8,17,T,8,,317
2012-11-5,39,37,35,25,23,20,64,54,44,30.19,30.12,30.06,10,10,10,13,7,16,0.00,8,,319
2012-11-6,43,35,26,25,21,18,75,57,39,30.23,30.16,30.09,10,10,5,10,1,14,0.00,4,,70
2012-11-7,45,35,25,26,21,16,92,62,31,30.10,30.02,29.95,10,10,9,13,4,21,0.00,0,,310
2012-11-8,49,42,34,24,20,12,64,45,26,30.08,30.00,29.96,10,10,10,21,10,28,0.00,0,,296
2012-11-9,53,43,33,35,29,20,89,68,46,30.23,30.16,30.08,10,10,10,15,6,18,0.00,2,,273
2012-11-10,50,42,33,41,36,31,92,82,71,30.36,30.31,30.23,10,8,6,8,1,9,0.01,5,,102
2012-11-11,65,52,38,40,39,37,92,65,37,30.44,30.38,30.33,10,8,3,16,5,26,0.00,1,,93
2012-11-12,65,57,48,55,47,39,77,64,51,30.36,30.22,30.04,10,9,1,36,10,46,0.17,4,Rain,139
2012-11-13,48,42,36,43,31,21,92,69,45,30.52,30.37,30.22,10,10,2,18,8,23,0.31,6,Rain,297
2012-11-14,46,38,30,27,24,20,85,63,41,30.58,30.52,30.48,10,10,10,13,4,18,0.00,4,,351
2012-11-15,45,36,27,30,26,25,85,67,49,30.47,30.40,30.33,10,10,10,6,0,8,0.00,0,,120
2012-11-16,51,39,27,30,27,25,92,64,36,30.52,30.40,30.34,10,10,9,12,3,16,0.00,0,,322
2012-11-17,52,40,27,33,29,24,92,68,44,30.66,30.60,30.52,10,10,7,7,2,8,0.00,0,,277
2012-11-18,50,37,24,32,27,23,100,73,46,30.68,30.62,30.55,10,6,0,5,0,6,0.00,0,Fog,110
2012-11-19,50,38,25,34,29,23,92,73,54,30.56,30.43,30.27,10,9,6,5,0,12,0.00,1,,140
2012-11-20,48,39,29,34,30,28,92,73,53,30.26,30.19,30.12,10,9,4,6,0,10,0.00,1,,234
2012-11-21,57,43,29,33,30,27,92,61,30,30.27,30.22,30.17,10,9,5,8,1,10,0.00,0,,263
2012-11-22,54,40,26,32,28,24,92,67,41,30.30,30.22,30.12,10,9,5,6,1,8,0.00,0,,145
2012-11-23,52,39,26,40,32,23,100,74,48,30.11,29.86,29.73,10,6,0,28,4,37,T,3,Fog-Rain,254
2012-11-24,42,38,33,28,24,20,82,63,44,29.94,29.86,29.82,10,9,1,24,13,33,0.01,7,Snow,284
2012-11-25,39,36,32,25,21,18,69,58,47,29.98,29.94,29.88,10,10,10,20,7,24,0.00,8,,266
2012-11-26,46,38,30,27,24,22,85,61,37,30.25,30.12,29.96,10,10,9,14,3,18,0.00,5,,250
2012-11-27,37,34,30,34,31,24,96,84,72,30.29,30.25,30.22,10,4,0,6,1,9,0.15,8,Fog-Rain-Snow,250
2012-11-28,42,33,24,27,22,18,92,65,38,30.31,30.27,30.20,10,10,7,20,5,28,0.00,6,,280
2012-11-29,47,37,26,24,22,18,78,56,34,30.38,30.32,30.27,10,10,8,14,6,22,0.00,2,,270
2012-11-30,45,35,24,26,24,21,85,65,45,30.39,30.35,30.32,10,10,9,15,4,18,0.00,4,,84